Volver al catálogo

STARLINK-37958

ActivoComunicacionesSSO
NORAD 69559·PAYLOAD·🇺🇸 United States

Lanzado Jun 15, 2026 desde Vandenberg Space Force Base

Loading…

Próximos Pases (próximas 24 horas)

TLE

ActualizadoSource: CelesTrak SupGP

Época: Sep 14, 2026, 20:49 UTC

1 69559C 26135P   26257.86784722  .00016903  00000+0  52486-3 0  2570
2 69559  97.2833 285.6531 0001212  98.8565  58.6898 15.33421463    12

Sigue STARLINK-37958 en tiempo real con AllMySat

Download on the App Store